FW8074 Weather Reports


Display with metric or nautical units.
time (UTC)temp
F
wind
direction
speed
MPH
gust
MPH
rain 1hr
in
rain 24hr
in
rain mn
in
humidity
%
barometer
mb
20260506134557 68 250 2.0 7.0 0.00 0.00 0.00 79 1012.6
20260506133101 67 267 4.0 7.0 0.00 0.00 0.00 81 1012.7
20260506131558 67 269 3.0 6.0 0.00 0.00 0.00 82 1012.5
20260506130057 66 273 2.0 6.0 0.00 0.00 0.00 83 1012.6
20260506124558 66 259 3.0 7.0 0.00 0.00 0.00 83 1012.2
20260506123054 66 255 3.0 6.0 0.00 0.00 0.00 83 1011.9
20260506121602 65 251 3.0 7.0 0.00 0.00 0.00 83 1012.0
20260506120110 64 245 3.0 7.0 0.00 0.00 0.00 83 1011.7
20260506114610 64 265 2.0 6.0 0.00 0.00 0.00 83 1011.6
20260506113054 63 259 2.0 6.0 0.00 0.00 0.00 84 1011.3
20260506111557 63 267 3.0 6.0 0.00 0.00 0.00 84 1011.3
20260506110054 63 251 3.0 4.0 0.00 0.00 0.00 84 1011.2
20260506104555 63 259 2.0 4.0 0.00 0.00 0.00 83 1011.2
20260506103055 63 248 2.0 4.0 0.00 0.00 0.00 82 1011.1
20260506101557 63 263 1.0 3.0 0.00 0.00 0.00 82 1011.2
20260506100054 64 248 2.0 4.0 0.00 0.00 0.00 81 1011.5
20260506094557 64 249 1.0 4.0 0.00 0.00 0.00 80 1011.3
20260506093111 64 247 2.0 4.0 0.00 0.00 0.00 80 1011.4
20260506091555 64 267 2.0 3.0 0.00 0.00 0.00 80 1011.7
20260506090121 64 263 1.0 4.0 0.00 0.00 0.00 80 1011.7
20260506084604 63 260 1.0 4.0 0.00 0.00 0.00 80 1012.0
20260506083101 63 240 2.0 4.0 0.00 0.00 0.00 80 1011.8
20260506081601 63 255 2.0 4.0 0.00 0.00 0.00 81 1011.7
20260506080112 63 0 0.0 0.0 0.00 0.00 0.00 81 1011.9
20260506073112 62 0 0.0 0.0 0.00 0.00 0.00 82 1011.7
20260506071557 62 0 0.0 0.0 0.00 0.00 0.00 83 1011.6
20260506061604 63 0 0.0 0.0 0.00 0.00 0.00 79 1012.0
20260506044611 66 239 1.0 4.0 0.00 0.00 0.00 73 1012.8
20260506043056 66 253 3.0 7.0 0.00 0.00 0.00 73 1012.8
20260506041608 66 0 0.0 3.0 0.00 0.00 0.00 74 1013.0
20260506034558 66 263 1.0 4.0 0.00 0.00 0.00 73 1012.7
20260506033057 67 255 1.0 6.0 0.00 0.00 0.00 73 1012.5
20260506031559 67 271 2.0 6.0 0.00 0.00 0.00 71 1012.7
20260506030055 68 261 2.0 6.0 0.00 0.00 0.00 71 1012.9
20260506024608 68 243 3.0 7.0 0.00 0.00 0.00 70 1013.0
20260506023102 69 241 3.0 7.0 0.00 0.00 0.00 69 1013.0
20260506021554 69 246 2.0 7.0 0.00 0.00 0.00 68 1012.9
20260506020123 70 246 1.0 6.0 0.00 0.00 0.00 67 1012.7
20260506014605 70 262 2.0 7.0 0.00 0.00 0.00 65 1012.4
20260506013057 71 250 1.0 4.0 0.00 0.00 0.00 64 1011.9
20260506011600 71 269 2.0 6.0 0.00 0.00 0.00 62 1011.7
20260506010054 71 241 1.0 4.0 0.00 0.00 0.00 61 1011.8
20260506004556 71 245 1.0 3.0 0.00 0.00 0.00 60 1011.5
20260506003058 71 0 0.0 0.0 0.00 0.00 0.00 56 1011.4
20260506001607 73 0 0.0 0.0 0.00 0.00 0.00 53 1011.2
20260506000125 74 0 0.0 0.0 0.00 0.00 0.00 51 1011.3
20260505234610 76 0 0.0 2.0 0.00 0.00 0.00 49 1011.2
20260505233100 77 251 1.0 6.0 0.00 0.00 0.00 47 1011.0
20260505231601 77 267 2.0 7.0 0.00 0.00 0.00 46 1011.0
20260505230100 78 273 3.0 6.0 0.00 0.00 0.00 45 1011.0
20260505224559 78 263 2.0 7.0 0.00 0.00 0.00 45 1011.3
20260505223104 78 261 3.0 6.0 0.00 0.00 0.00 45 1011.3
20260505221601 79 278 3.0 10.0 0.00 0.00 0.00 45 1011.3
20260505220108 80 253 3.0 7.0 0.00 0.00 0.00 44 1011.1
20260505214610 79 252 4.0 10.0 0.00 0.00 0.00 44 1011.3
20260505213058 79 269 3.0 10.0 0.00 0.00 0.00 45 1011.3
20260505211641 79 265 2.0 7.0 0.00 0.00 0.00 45 1011.4
20260505210056 79 249 3.0 10.0 0.00 0.00 0.00 46 1011.5
20260505204603 80 259 4.0 9.0 0.00 0.00 0.00 47 1011.6
20260505203057 80 267 3.0 7.0 0.00 0.00 0.00 44 1011.6
20260505201555 79 298 4.0 10.0 0.00 0.00 0.00 46 1011.8
20260505200055 80 213 3.0 8.0 0.00 0.00 0.00 46 1012.0
20260505194557 79 268 4.0 7.0 0.00 0.00 0.00 47 1012.3
20260505193054 80 262 4.0 8.0 0.00 0.00 0.00 48 1012.4
20260505191604 80 276 3.0 7.0 0.00 0.00 0.00 47 1012.6
20260505190108 80 282 2.0 8.0 0.00 0.00 0.00 47 1012.8
20260505184554 80 280 2.0 7.0 0.00 0.00 0.00 46 1012.9
20260505183054 78 257 5.0 8.0 0.00 0.00 0.00 46 1013.3
20260505181638 79 275 4.0 9.0 0.00 0.00 0.00 48 1013.2
20260505180103 79 275 4.0 9.0 0.00 0.00 0.00 47 1013.1
20260505174556 78 260 3.0 9.0 0.00 0.00 0.00 47 1013.1
20260505173055 77 286 4.0 10.0 0.00 0.00 0.00 49 1013.4
20260505171603 77 279 5.0 10.0 0.00 0.00 0.00 49 1013.5
20260505170055 77 243 4.0 11.0 0.00 0.00 0.00 51 1013.5
20260505164555 77 240 2.0 7.0 0.00 0.00 0.00 52 1013.9
20260505163057 76 276 4.0 9.0 0.00 0.00 0.00 54 1014.1
20260505161555 75 248 3.0 7.0 0.00 0.00 0.00 55 1014.1
20260505153059 73 0 3.0 7.0 0.00 0.00 0.00 61 1014.4
20260505151559 73 284 4.0 8.0 0.00 0.00 0.00 60 1014.5
20260505140109 69 271 3.0 7.0 0.00 0.00 0.00 70 1014.3